Location: Indian Hills
(32.9760°N, 85.9450°W)
Time: 21:30:55
(UTC+00:00)

USA 238 - Pass Details

Date: 09 December 2019
Orbit: 1023 x 1189 km, 63.4° (Epoch: 16 January)

Event Time Altitude Azimuth Distance (km) Brightness Sun altitude
Rises 11:43:19 0° 197° (SSW) 3,749 6.6 -10.7°
Reaches altitude 10° 11:45:56 10° 194° (SSW) 2,803 6.0 -10.2°
Maximum altitude 11:52:23 60° 115° (ESE) 1,170 4.3 -9.0°
Drops below altitude 10° 11:59:01 10° 38° (NE) 2,878 6.2 -7.7°
Sets 12:01:44 0° 35° (NE) 3,857 6.8 -7.1°
